This is the latest recevied weather packets stored in our database for station/object KD9IXX-13. If no packets are shown the sender has not sent any weather packets the latest 10 day(s).
| Time | Temp. | Humidity | Pressure | Rain* | Wind** | Luminosity | Snow |
|---|---|---|---|---|---|---|---|
| 1778093102 | 12.22° C | 48% | 1016 hPa | 0 mm | - | 257 W/m² | - |
| 1778092802 | 12.78° C | 47% | 1015.8 hPa | 0 mm | - | 308 W/m² | - |
| 1778092502 | 12.22° C | 47% | 1016 hPa | 0 mm | - | 258 W/m² | - |
| 1778092202 | 12.22° C | 47% | 1015.7 hPa | 0 mm | - | 221 W/m² | - |
| 1778091902 | 12.22° C | 46% | 1015.7 hPa | 0 mm | - | 267 W/m² | - |
| 1778091602 | 13.33° C | 49% | 1015.6 hPa | 0 mm | - | 410 W/m² | - |
| 1778091302 | 12.78° C | 47% | 1015.8 hPa | 0 mm | - | 275 W/m² | - |
| 1778091002 | 12.78° C | 45% | 1015.9 hPa | 0 mm | - | 492 W/m² | - |
| 1778090702 | 12.22° C | 45% | 1016 hPa | 0 mm | - | 356 W/m² | - |
| 1778090403 | 12.78° C | 45% | 1015.9 hPa | 0 mm | - | 321 W/m² | - |
| 1778090102 | 12.78° C | 50% | 1016 hPa | 0 mm | - | 334 W/m² | - |
| 1778089803 | 12.78° C | 46% | 1016.1 hPa | 0 mm | - | 349 W/m² | - |
| 1778089503 | 12.78° C | 44% | 1016.2 hPa | 0 mm | - | 447 W/m² | - |
| 1778089202 | 12.78° C | 44% | 1016.2 hPa | 0 mm | - | 336 W/m² | - |
| 1778088902 | 13.33° C | 46% | 1016.1 hPa | 0 mm | - | 605 W/m² | - |
| 1778088602 | 13.33° C | 40% | 1016.3 hPa | 0 mm | - | 840 W/m² | - |
| 1778088302 | 12.78° C | 42% | 1016.1 hPa | 0 mm | - | 654 W/m² | - |
| 1778088002 | 13.33° C | 44% | 1016.2 hPa | 0 mm | - | 564 W/m² | - |
| 1778087702 | 12.78° C | 45% | 1016.3 hPa | 0 mm | - | 377 W/m² | - |
| 1778087402 | 12.22° C | 47% | 1016.3 hPa | 0 mm | - | 490 W/m² | - |
| 1778087102 | 12.78° C | 43% | 1016.2 hPa | 0 mm | - | 606 W/m² | - |
| 1778086802 | 12.78° C | 44% | 1016.1 hPa | 0 mm | - | 384 W/m² | - |
| 1778086502 | 12.78° C | 42% | 1016.1 hPa | 0 mm | - | 555 W/m² | - |
| 1778086202 | 12.78° C | 44% | 1016.1 hPa | 0 mm | - | 509 W/m² | - |
| 1778085903 | 12.78° C | 41% | 1015.8 hPa | 0 mm | - | 562 W/m² | - |
* Rain latest hour (hover to see other rain measurements)
** Current wind speed in m/s (hover to see current wind gust speed)